Regional Weather Roundup
Issued by NWS

Home | Current Version | Previous Version | Text Only | Print | Product List | Glossary Off
Versions: 1 2 3 4 5 6 7 8 9 10 11 12 13 14 15 16 17 18 19 20 21 22 23 24 25 26 27 28 29 30 31 32 33 34 35 36 37 38 39 40 41 42 43 44 45 46 47 48 49 50

000
ASUS43 KMPX 260901
RWRMN
WEATHER ROUNDUP FOR MINNESOTA
NATIONAL WEATHER SERVICE TWIN CITIES/CHANHASSEN MN
400 AM CDT MON SEP 26 2016


NOTE: "FAIR" INDICATES FEW OR NO CLOUDS BELOW 12,000 FEET WITH NO
SIGNIFICANT WEATHER AND/OR OBSTRUCTIONS TO VISIBILITY. N/A MEANS
CURRENT SKY AND/OR WEATHER CONDITIONS ARE NOT AVAILABLE.

MNZ060>063-068>070-261000-
   Twin Cities Metro

CITY           SKY/WX    TMP DP  RH WIND       PRES   REMARKS
TWIN CITIES    PTCLDY    52  43  71 W12       29.93F
ST PAUL        CLEAR     53  44  71 W9        29.93F
CRYSTAL        PTCLDY    52  42  69 W10       29.91F
BLAINE         PTCLDY    55  45  67 W9        29.91F
LAKEVILLE      CLEAR     48  43  81 W8        29.95F
EDEN PRAIRIE   PTCLDY    51  42  71 W10       29.93F
LAKEVILLE      CLEAR     48  43  81 W8        29.95F
SOUTH ST PAUL  CLEAR     52  44  74 W12       29.93F
LAKE ELMO      FAIR      52  45  76 W9        29.92F
$$
MNZ001>005-007-008-013>017-022>024-027-028-261000-
   Northwest Minnesota

CITY           SKY/WX    TMP DP  RH WIND       PRES   REMARKS
BEMIDJI        MOCLDY    47  41  78 W15G25    29.83S
HALLOCK        CLOUDY    52  39  62 W17       29.87F
ROSEAU         PTCLDY    48  45  87 W14G20    29.79S
THIEF RVR FALL PTCLDY    48  40  73 W16       29.88F
CROOKSTON      PTCLDY    48  41  76 NW14      29.91F
FOSSTON        CLEAR     45  39  81 W13G18    29.89S
DETROIT LAKES  PTCLDY    48  37  66 NW16      29.94S
MOORHEAD       CLEAR     50  37  62 W17       29.97S
PARK RAPIDS    PTCLDY    48  40  73 W16       29.87F
MAHNOMEN       CLOUDY    46  40  77 W16       29.90F
$$
MNZ006-009>011-018-025>026-261000-
   North Central Minnesota

CITY           SKY/WX    TMP DP  RH WIND       PRES   REMARKS
BAUDETTE       LGT RAIN  50  46  86 NW22G30   29.72F
FLAG ISLAND    LGT RAIN  50  46  87 W26G33    29.70F
INTL FALLS     LGT RAIN  50  48  93 W16G28    29.65S
WASKISH        CLOUDY    48  48 100 W20G30    29.77R
BIG FORK       LGT RAIN  48  46  93 W9        29.73F
GRAND RAPIDS   LGT RAIN  49  47  93 W12       29.78F
COOK           LGT RAIN  48  46  93 W18G24    29.66F
WALKER         FAIR      48  42  80 W15G21    29.83S
$$
MNZ012-019>021-037-261000-
   Northeast Minnesota

CITY           SKY/WX    TMP DP  RH WIND       PRES   REMARKS
DULUTH         LGT RAIN  50  48  93 W18G29    29.70F
ELY            LGT RAIN  48  48 100 W14G22    29.60F
HIBBING        LGT RAIN  48  46  93 W14G26    29.70F
EVELETH        LGT RAIN  50  47  91 W16G29    29.69S
DULUTH HARBOR  LGT RAIN  52  48  87 SW16G23   29.72F
TWO HARBORS    LGT RAIN  54  48  82 W13G23    29.63F
SILVER BAY     LGT RAIN  52  48  87 W8        29.60F
GRAND MARAIS     N/A     55  52  89 W8        29.57F
G MARAIS ARPRT CLOUDY    48  45  87 SW5       29.58F FOG
$$
MNZ029>031-032-039>041-046>048-054>057-064-261000-
   West Central Minnesota

CITY           SKY/WX    TMP DP  RH WIND       PRES   REMARKS
FERGUS FALLS   CLEAR     45  37  76 W12       30.00S
MORRIS         CLEAR     48  37  66 W14       30.00R
ALEXANDRIA     CLEAR     49  39  68 W14G24    29.97S
ELBOW LAKE     FAIR      47  38  71 NW12      29.99S
GLENWOOD       CLEAR     46  39  76 W13       29.98R
BENSON         CLEAR     48  37  66 NW10      30.01R
MADISON          N/A     50  39  66 W10       30.05S
WILLMAR        FAIR      48  41  76 W9        30.01S
$$
MNZ033>034-036-042>043-049>051-058-059-261000-
   Central Minnesota

CITY           SKY/WX    TMP DP  RH WIND       PRES   REMARKS
ST CLOUD       CLEAR     50  44  80 W13       29.91F
SAUK CENTRE    FAIR      48  40  73 W13       29.95S
PAYNESVILLE    CLEAR     48  40  74 W12       29.97S
AITKIN         CLOUDY    52  45  76 SW9G16    29.81F
PINE RIVER     PTCLDY    48  45  87 W7G16     29.88F
BRAINERD       PTCLDY    50  43  77 W13G21    29.87F
STAPLES        CLOUDY    46  41  81 W10       29.90S
LITTLE FALLS   CLEAR     50  41  71 W8        29.90F
LITCHFIELD     PTCLDY    52  43  71 W12G18    29.97F
BUFFALO        CLOUDY    51  42  70 W9        29.95S
MAPLE LAKE     PTCLDY    52  44  75 W8G16     29.94F
HUTCHINSON     CLOUDY    49  42  76 W12       29.99S
$$
MNZ037-044-045-052-053-261000-
   East Central Minnesota

CITY           SKY/WX    TMP DP  RH WIND       PRES   REMARKS
PRINCETON      PTCLDY    52  45  76 SW8       29.90F
MORA           CLOUDY    50  45  81 W8        29.88F
CAMBRIDGE      CLOUDY    55  43  62 W7        29.87F
MOOSE LAKE     RAIN      48  45  87 W12G17    29.78F
HINCKLEY       CLOUDY    52  46  82 W8G16     29.83F
CLOQUET        LGT RAIN  48  46  93 W16       29.74F
MCGREGOR       CLOUDY    48  46  93 W9        29.80F
$$
MNZ071>073-080-081-089-090-097-098-261000-
   Southwest Minnesota

CITY           SKY/WX    TMP DP  RH WIND       PRES   REMARKS
MONTEVIDEO     CLEAR     50  37  62 NW9G16    30.05S
GRANITE FALLS  CLEAR     51  40  67 W14       30.05S
CANBY          CLEAR     50  38  62 NW13G18   30.08S
MARSHALL       CLEAR     50  37  61 W15       30.07S
REDWOOD FALLS  CLEAR     51  37  58 W16       30.02F
OLIVIA         CLEAR     50  37  62 W12       30.00S
PIPESTONE      CLEAR     46  36  66 W7        30.11F
WINDOM         CLEAR     48  37  66 W9        30.07S
WORTHINGTON    CLEAR     45  38  76 W12       30.11F
JACKSON        CLEAR     46  36  66 W13       30.08F
TRACY          CLEAR     50  39  65 W7        30.07S
$$
MNZ065>067-074>077-082>085-091>093-261000-
   South Central Minnesota

CITY           SKY/WX    TMP DP  RH WIND       PRES   REMARKS
MANKATO        CLEAR     51  39  63 W12       30.01F
ST JAMES       CLEAR     52  37  58 W12       30.05S
FAIRMONT       CLEAR     51  38  60 W13       30.06F
GLENCOE        CLEAR     51  43  75 W9        29.97S
FARIBAULT      CLEAR     52  43  71 W10G16    29.98F
OWATONNA       CLEAR     48  41  76 W7        29.99F
WASECA         CLEAR     50  41  71 W8        30.01F
ALBERT LEA     CLEAR     52  39  62 W7        30.02S
$$
MNZ078>079-086>088-094>096-261000-
   Southeast Minnesota

CITY           SKY/WX    TMP DP  RH WIND       PRES   REMARKS
ROCHESTER      PTCLDY    49  42  77 W9        29.98F
RED WING       PTCLDY    54  45  71 W9        29.92F
STANTON        CLEAR     51  42  72 W7        29.95F
DODGE CENTER   PTCLDY    48  43  81 W9        29.98F
WINONA         CLEAR     54  43  66 W7        29.95S
AUSTIN         CLEAR     52  39  62 W12       30.00F
PRESTON        CLEAR     48  40  75 W12       29.99F
$$
ABBREVIATIONS USED IN REMARKS
   TC - TEMPERATURES IN CELSIUS
  WCI - WIND CHILL INDEX
   HX - HEAT INDEX
  VSB - VISIBILITY
$$



USA.gov is the U.S. government's official web portal to all federal, state and local government web resources and services.